Regional Weather Roundup
Issued by NWS

Home | Current Version | Previous Version | Text Only | Print | Product List | Glossary Off
Versions: 1 2 3 4 5 6 7 8 9 10 11 12 13 14 15 16 17 18 19 20 21 22 23 24 25 26 27 28 29 30 31 32 33 34 35 36 37 38 39 40 41 42 43 44 45 46 47 48 49 50

000
ASUS43 KLOT 301800
RWRIL

ILLINOIS REGIONAL WEATHER ROUNDUP
NATIONAL WEATHER SERVICE CHICAGO/ROMEOVILLE IL
100 PM CDT THU JUL 30 2015

NOTE: "FAIR" INDICATES FEW OR NO CLOUDS BELOW 12,000 FEET WITH NO
SIGNIFICANT WEATHER AND/OR OBSTRUCTIONS TO VISIBILITY.

* THESE STATIONS ARE NOT UNDER NWS QUALITY CONTROL. THEY ALSO MAY NOT
  REPORT WEATHER SUCH AS PRECIPITATION OR FOG.

ILZ001-002-007-009-015-016-024-301900-
NORTHWEST ILLINOIS

CITY           SKY/WX    TMP DP  RH WIND       PRES   REMARKS
MOLINE         SUNNY     86  61  42 W9        30.11F HX  86
6HR MIN TEMP:  67; 6HR MAX TEMP:  87;

STERLING*      SUNNY     86  64  48 NW14      30.08S HX  87
$$

ILZ003-004-008-010-011-017-018-301900-
NORTH CENTRAL ILLINOIS

CITY           SKY/WX    TMP DP  RH WIND       PRES   REMARKS
ROCKFORD       MOSUNNY   86  55  34 W17G23    30.09F HX  84
6HR MIN TEMP:  66; 6HR MAX TEMP:  86;

$$

ILZ005-006-012>014-019>023-301900-
NORTHEAST ILLINOIS

CITY           SKY/WX    TMP DP  RH WIND       PRES   REMARKS
CHICAGO-OHARE  MOSUNNY   86  54  33 W15       30.06S HX  84
6HR MIN TEMP:  67; 6HR MAX TEMP:  87;

CHICAGO-MIDWAY MOSUNNY   88  53  30 W12G20    30.06S HX  86
6HR MIN TEMP:  71; 6HR MAX TEMP:  88;

AURORA         SUNNY     84  57  39 NW12      30.09S HX  83
6HR MIN TEMP:  63; 6HR MAX TEMP:  84;

WAUKEGAN       SUNNY     84  56  38 VRB7G17   30.04F HX  83
6HR MIN TEMP:  67; 6HR MAX TEMP:  84;

DUPAGE AIRPORT SUNNY     86  54  33 W12G18    30.07F HX  84
6HR MIN TEMP:  65; 6HR MAX TEMP:  86;

WHEELING       SUNNY     86  52  30 NW17G26   30.07S HX  84
6HR MIN TEMP:  68; 6HR MAX TEMP:  86;

NORTHERLY ISL    N/A     85  50  29 NW9         N/A  HX  83
$$

LMZ740>746-301900-
SOUTHERN LAKE MICHIGAN

STATION/POSITION SKY/WX   TEMP    WIND        PRES    VSBY  WAVE
                          AIR SEA DIR/SP/G                  HT/PER
                          (F)     (DEG/KT/KT) (MB)    (MI)  (FT/S)
HARRISON CRIB              79     320/ 13/ 15   N/A
BURNHAM HARBOR             83     310/ 11/ 17   N/A
CALUMET HARBOR             84     320/  7/ 13   N/A
BURNS HARBOR               76     280/  5/  6 1018.6S
MICHIGAN CITY              74     230/ 10/ 12   N/A
MICHIGAN CITY 6N           74 73  270/  8/ 10   N/A           2/ 4
ST. JOSEPH                 73 74  290/ 12/ 14   N/A           3/ 5
$$

ILZ025>027-034>036-040-047-049-050-058-095>099-301900-
WEST-CENTRAL ILLINOIS

CITY           SKY/WX    TMP DP  RH WIND       PRES   REMARKS
QUINCY         SUNNY     85  61  44 W10       30.17F HX  85
$$

ILZ028>032-037-038-041>044-048-051>054-059>061-301900-
CENTRAL ILLINOIS

CITY           SKY/WX    TMP DP  RH WIND       PRES   REMARKS
DECATUR        SUNNY     87  60  40 W13       30.14F HX  87
PEORIA         SUNNY     86  64  47 VRB7      30.13F HX  87
6HR MIN TEMP:  71; 6HR MAX TEMP:  87;

SPRINGFIELD    SUNNY     86  64  47 NW10      30.15F HX  87
6HR MIN TEMP:  64; 6HR MAX TEMP:  86;

TAYLORVILLE    NOT AVBL
$$

ILZ033-039-045-046-055>057-062-063-301900-
EAST-CENTRAL ILLINOIS

CITY           SKY/WX    TMP DP  RH WIND       PRES   REMARKS
CHAMPAIGN      SUNNY     84  64  50 NW9       30.14S HX  85
MATTOON        SUNNY     86  58  38 NW15      30.14S HX  85
$$

ILZ079-100>102-301900-
SOUTHWEST ILLINOIS

CITY           SKY/WX    TMP DP  RH WIND       PRES   REMARKS
ALTON          SUNNY     84  59  42 W8        30.17F HX  84
CAHOKIA*       SUNNY     90  54  29 NW9       30.16F HX  88
$$

ILZ064>066-069>071-074>076-080>082-084>086-088>090-092>094-301900-
SOUTH-CENTRAL ILLINOIS

CITY           SKY/WX    TMP DP  RH WIND       PRES   REMARKS
CARBONDALE     SUNNY     86  58  38 VRB5      30.16S HX  85
6HR MIN TEMP:  68; 6HR MAX TEMP:  86;

MARION         SUNNY     86  59  39 N9        30.17S HX  85
MT. VERNON     SUNNY     84  61  45 NW6       30.16S HX  84
$$

ILZ067-068-072-073-078-083-087-091-301900-
SOUTHEAST ILLINOIS

CITY           SKY/WX    TMP DP  RH WIND       PRES   REMARKS
LAWRENCEVILLE  SUNNY     85  59  41 N14       30.14R HX  84
$$

ABBREVIATIONS USED IN REMARKS
   TC - TEMPERATURE IN CELSIUS
  WCI - WIND CHILL INDEX
   HX - HEAT INDEX
  VSB - VISIBILITY
$$




USA.gov is the U.S. government's official web portal to all federal, state and local government web resources and services.